User: anonymous   Login
Location: Huntington Beach
(33.6600°N, 117.9980°W)
Time: 10:29:10
(UTC-07:00)
Language:

SL-16 R/B - Orbit

View from above orbital plane
View from above orbital plane
View from above satellite
View from above satellite

Ground track
Ground track

The orbit data is extracted from the following two-line orbital elements,

1 28353U 04021B   15144.49145599 -.00000294  00000-0 -12909-3 0  9990
2 28353 071.0011 221.1211 0007570 266.7212 093.3044 14.14150544565466
Epoch (UTC): 24 May 2015 11:47:41
Eccentricity: 0.0007570
inclination: 71.0011°
perigee height: 840 km
apogee height: 850 km
right ascension of ascending node: 221.1211°
argument of perigee: 266.7212°
revolutions per day: 14.14150544
mean anomaly at epoch: 93.3044°
orbit number at epoch: 56546

The dashed part of the orbit path shows where the satellite is in the earth's shadow,  

DLR